Overview Statistics Trail Chart Weather Telemetry Raw packets
 

This is the latest recevied weather packets stored in our database for station/object VO2AGO. If no packets are shown the sender has not sent any weather packets the latest 10 day(s).

<< 56 57 58 59 60 61 62 >>
Time Temp. Humidity Pressure Rain* Wind** Luminosity Snow
1777499002 8.89° C 84% 101.2 hPa 0 mm 0 m/s 687 W/m² -
1777498551 8.89° C 88% 101.2 hPa 0 mm 0 m/s 1038 W/m² -
1777498101 8.89° C 85% 101.2 hPa 0 mm 0 m/s 451 W/m² -
1777497651 9.44° C 79% 101.2 hPa 0 mm 0 m/s 347 W/m² -
1777497202 9.44° C 75% 101.2 hPa 0 mm 0 m/s 1276 W/m² -
1777496752 10° C 73% 101.2 hPa 0 mm 0 m/s 1433 W/m² -
1777496301 9.44° C 74% 101.1 hPa 0 mm 0 m/s 1376 W/m² -
1777495852 10° C 71% 101.2 hPa 0 mm 0 m/s 1301 W/m² -
1777495402 10° C 70% 101.1 hPa 0 mm 0 m/s 1549 W/m² -
1777494954 10° C - - - 0 m/s 1108 W/m² -
1777494501 9.44° C 72% 101.2 hPa 0 mm 0 m/s 1226 W/m² -
1777494051 10° C 69% 101.1 hPa 0 mm 0 m/s 1987 W/m² -
1777493601 10° C 70% 101.1 hPa 0 mm 0 m/s 1937 W/m² -
1777493152 9.44° C - - - 0 m/s 1117 W/m² -
1777492702 10° C 69% 101.1 hPa 0 mm 0 m/s 1359 W/m² -
1777492251 10° C - - - 0 m/s 1105 W/m² -
1777491801 9.44° C 73% 101.1 hPa 0 mm 0 m/s 916 W/m² -
1777491352 8.89° C 76% 101.1 hPa 0 mm 0 m/s 649 W/m² -
1777490902 9.44° C 75% 101.1 hPa 0 mm 0 m/s 659 W/m² -
1777490451 9.44° C 74% 101.1 hPa 0 mm 0 m/s 427 W/m² -
1777490001 9.44° C 73% 101.1 hPa 0 mm 0 m/s 351 W/m² -
1777489552 9.44° C 73% 101.1 hPa 0 mm 0 m/s 513 W/m² -
1777489102 10° C 68% 101.1 hPa 0 mm 0 m/s 530 W/m² -
1777488652 10° C 67% 101.1 hPa 0 mm 0 m/s 788 W/m² -
1777488201 10° C 67% 101.1 hPa 0 mm 0 m/s 829 W/m² -

* Rain latest hour (hover to see other rain measurements)
** Current wind speed in m/s (hover to see current wind gust speed)